Weather History for KLOU - January, 2013

Change the Weather History Date:

Friday, January 25, 2013

  Actual Average Record
Temperature  
Mean Temperature 26 °F 34 °F  
Max Temperature 29 °F 43 °F 77 °F (1950)
Min Temperature 23 °F 27 °F -6 °F (1963)
Degree Days  
Heating Degree Days 39 30  
Month to date heating degree days 723 768  
Since 1 July heating degree days 2318 2432  
Cooling Degree Days 0 0  
Month to date cooling degree days 0 0  
Year to date cooling degree days 0 0  
Moisture  
Dew Point 18 °F    
Average Humidity 62    
Maximum Humidity 88    
Minimum Humidity 36    
Precipitation  
Precipitation T in 0.09 in 1.10 in (1976)
Month to date precipitation 3.62 2.78  
Year to date precipitation 3.62 2.78  
Sea Level Pressure  
Sea Level Pressure 30.18 in    
Wind  
Wind Speed 5 mph (SSW)    
Max Wind Speed 12 mph    
Max Gust Speed 15 mph    
Visibility 7 miles    
Events Snow    
T = Trace of Precipitation, MM = Missing Value Source: NWS Daily Summary

Daily Weather History Graph

Daily Weather History Graph

Search for Another Location

Airport or City:

Trip Planner

Search our weather history database for the weather conditions in past years. The results will help you decide how hot, cold, wet, or windy it might be!

Date:

Astronomy

Jan. 25, 2013 Rise Set
Actual Time 7:52 AM EST 5:57 PM EST
Civil Twilight 7:24 AM EST 6:26 PM EST
Nautical Twilight 6:52 AM EST 6:58 PM EST
Astronomical Twilight 6:21 AM EST 7:29 PM EST
Moon 4:54 PM EST (1/25) 6:31 AM EST (1/25)
Length of Visible Light 11h 01m
Length of Day
10h 05m
Waxing Gibbous, 98% of the Moon is Illuminated
Jan 25
Waxing Gibbous
Jan 26
Full
Feb 3
Last Quarter
Feb 10
New
Feb 17
First Quarter

Hourly Weather History & Observations

Time (EST) Temp. Windchill Dew Point Humidity Pressure Visibility Wind Dir Wind Speed Gust Speed Precip Events Conditions
12:53 AM 23.0 °F 15.8 °F 1.9 °F 40% 30.40 in 10.0 mi East 5.8 mph - N/A   Clear
1:53 AM 24.1 °F 17.0 °F 1.9 °F 38% 30.38 in 10.0 mi ESE 5.8 mph - N/A   Clear
2:53 AM 24.1 °F 15.2 °F 3.9 °F 42% 30.33 in 10.0 mi ESE 8.1 mph - N/A   Overcast
3:53 AM 24.1 °F 18.2 °F 3.9 °F 42% 30.31 in 10.0 mi East 4.6 mph - N/A   Overcast
4:53 AM 25.0 °F 20.7 °F 5.0 °F 43% 30.28 in 10.0 mi ENE 3.5 mph - N/A   Overcast
5:53 AM 25.0 °F 16.3 °F 7.0 °F 46% 30.23 in 9.0 mi ESE 8.1 mph - 0.00 in Snow Light Snow
6:53 AM 24.1 °F 18.2 °F 10.9 °F 57% 30.19 in 10.0 mi East 4.6 mph - 0.00 in   Overcast
7:29 AM 24.8 °F 19.1 °F 10.4 °F 54% 30.18 in 10.0 mi ESE 4.6 mph - 0.00 in   Overcast
7:53 AM 24.1 °F 17.0 °F 12.0 °F 60% 30.17 in 10.0 mi SE 5.8 mph - 0.00 in   Overcast
8:53 AM 24.1 °F - 16.0 °F 71% 30.17 in 4.0 mi Calm Calm - 0.00 in   Overcast
9:21 AM 23.0 °F 18.4 °F 17.6 °F 80% 30.15 in 2.0 mi ESE 3.5 mph - 0.00 in   Haze
9:53 AM 23.0 °F 15.8 °F 19.9 °F 88% 30.14 in 4.0 mi SE 5.8 mph - 0.00 in   Overcast
10:04 AM 23.0 °F 17.0 °F 19.4 °F 86% 30.11 in 5.0 mi SSE 4.6 mph - N/A   Overcast
10:32 AM 24.8 °F - 19.4 °F 80% 30.15 in 9.0 mi Calm Calm - N/A   Overcast
10:53 AM 23.0 °F - 19.9 °F 88% 30.16 in 8.0 mi Calm Calm - N/A   Overcast
11:18 AM 24.8 °F - 19.4 °F 80% 30.14 in 7.0 mi Calm Calm - N/A   Overcast
11:53 AM 24.1 °F 19.7 °F 19.9 °F 84% 30.16 in 7.0 mi NW 3.5 mph - N/A   Overcast
12:53 PM 25.0 °F 19.3 °F 21.9 °F 88% 30.15 in 3.0 mi NW 4.6 mph - N/A   Overcast
1:12 PM 26.6 °F - 21.2 °F 80% 30.11 in 2.5 mi Calm Calm - N/A   Overcast
1:20 PM 26.6 °F - 21.2 °F 80% 30.11 in 3.0 mi Calm Calm - N/A   Overcast
1:27 PM 26.6 °F 22.6 °F 21.2 °F 80% 30.11 in 2.5 mi Variable 3.5 mph - N/A   Overcast
1:37 PM 26.6 °F 20.0 °F 21.2 °F 80% 30.10 in 4.0 mi WSW 5.8 mph - N/A   Overcast
1:53 PM 27.0 °F 18.7 °F 21.9 °F 81% 30.13 in 6.0 mi West 8.1 mph - N/A   Haze
2:08 PM 26.6 °F 18.2 °F 23.0 °F 86% 30.10 in 6.0 mi West 8.1 mph - N/A   Overcast
2:53 PM 28.0 °F 20.0 °F 23.0 °F 81% 30.12 in 7.0 mi West 8.1 mph - N/A   Overcast
3:39 PM 28.4 °F 21.2 °F 21.2 °F 74% 30.11 in 10.0 mi WNW 6.9 mph - N/A   Overcast
3:53 PM 28.0 °F 20.8 °F 23.0 °F 81% 30.14 in 10.0 mi West 6.9 mph - N/A   Overcast
4:53 PM 28.9 °F 22.8 °F 21.9 °F 75% 30.14 in 9.0 mi West 5.8 mph - N/A   Overcast
5:35 PM 28.4 °F 20.4 °F 21.2 °F 74% 30.12 in 7.0 mi WSW 8.1 mph - N/A   Overcast
5:48 PM 28.4 °F 21.2 °F 21.2 °F 74% 30.12 in 6.0 mi WSW 6.9 mph - N/A   Haze
5:53 PM 28.9 °F 23.9 °F 21.9 °F 75% 30.14 in 6.0 mi WSW 4.6 mph - N/A   Haze
6:53 PM 28.9 °F 21.9 °F 21.9 °F 75% 30.17 in 8.0 mi WSW 6.9 mph - N/A   Overcast
7:53 PM 28.0 °F 21.7 °F 23.0 °F 81% 30.18 in 7.0 mi SW 5.8 mph - N/A   Overcast
8:14 PM 28.4 °F 22.2 °F 21.2 °F 74% 30.17 in 7.0 mi SW 5.8 mph - N/A   Scattered Clouds
8:53 PM 27.0 °F 23.0 °F 21.9 °F 81% 30.19 in 7.0 mi South 3.5 mph - N/A   Clear
9:53 PM 26.1 °F 20.5 °F 21.9 °F 84% 30.19 in 6.0 mi South 4.6 mph - N/A   Clear
10:53 PM 25.0 °F 20.7 °F 21.9 °F 88% 30.21 in 5.0 mi South 3.5 mph - N/A   Clear
11:53 PM 25.0 °F 19.3 °F 21.9 °F 88% 30.21 in 5.0 mi South 4.6 mph - N/A   Clear